2023/09/01 00:00:00,25.5,21.8
2023/09/01 00:10:00,25.6,21.9
2023/09/01 00:20:00,25.7,21.7
2023/09/01 00:30:00,25.4,22.6
2023/09/01 00:40:00,25.4,22.7
2023/09/01 00:50:00,25.8,23.0
2023/09/01 01:00:00,26.2,22.8
2023/09/01 01:10:00,26.1,22.9
2023/09/01 01:20:00,26.2,22.7
2023/09/01 01:30:00,26.0,23.3
2023/09/01 01:40:00,25.6,23.1
2023/09/01 01:50:00,25.8,22.9
2023/09/01 02:00:00,25.9,22.3
2023/09/01 02:10:00,26.1,21.9
2023/09/01 02:20:00,26.1,22.1
2023/09/01 02:30:00,26.2,22.2
2023/09/01 02:40:00,25.8,22.3
2023/09/01 02:50:00,26.3,21.9
2023/09/01 03:00:00,26.3,22.1
2023/09/01 03:10:00,26.3,22.7
2023/09/01 03:20:00,24.2,23.1
2023/09/01 03:30:00,23.8,23.0
2023/09/01 03:40:00,25.5,22.8
2023/09/01 03:50:00,26.1,22.2
2023/09/01 04:00:00,26.4,22.3
2023/09/01 04:10:00,26.6,21.7
2023/09/01 04:20:00,26.5,21.8
2023/09/01 04:30:00,26.5,21.6
2023/09/01 04:40:00,26.3,21.5
2023/09/01 04:50:00,26.0,21.9
2023/09/01 05:00:00,26.4,22.3
2023/09/01 05:10:00,25.7,22.5
2023/09/01 05:20:00,24.7,22.7
2023/09/01 05:30:00,25.4,22.4
2023/09/01 05:40:00,22.3,22.7
2023/09/01 05:50:00,25.9,22.5
2023/09/01 06:00:00,26.7,22.3
2023/09/01 06:10:00,26.7,23.2
2023/09/01 06:20:00,26.4,23.3
2023/09/01 06:30:00,24.4,23.7
2023/09/01 06:40:00,24.8,23.4
2023/09/01 06:50:00,26.4,23.7
2023/09/01 07:00:00,18.8,23.8
2023/09/01 07:10:00,15.4,23.7
2023/09/01 07:20:00, 9.1,23.9
2023/09/01 07:30:00,13.1,23.7
2023/09/01 07:40:00,16.1,23.8
2023/09/01 07:50:00,10.2,24.4
2023/09/01 08:00:00, 8.0,24.0
2023/09/01 08:10:00, 9.2,24.2
2023/09/01 08:20:00,17.6,24.0
2023/09/01 08:30:00,18.9,24.0
2023/09/01 08:40:00,18.3,24.2
2023/09/01 08:50:00,15.0,24.3
2023/09/01 09:00:00, 8.1,24.6
2023/09/01 09:10:00, 5.6,24.9
2023/09/01 09:20:00, 4.7,25.1
2023/09/01 09:30:00, 7.2,25.4
2023/09/01 09:40:00, 6.3,25.7
2023/09/01 09:50:00, 5.4,26.0
2023/09/01 10:00:00, 7.8,26.6
2023/09/01 10:10:00,19.8,26.6
2023/09/01 10:20:00,21.2,26.5
2023/09/01 10:30:00,21.0,26.5
2023/09/01 10:40:00,17.0,26.1
2023/09/01 10:50:00,19.9,25.5
2023/09/01 11:00:00,14.7,25.0
2023/09/01 11:10:00,---,24.4
2023/09/01 11:20:00,24.7,24.6
2023/09/01 11:30:00,25.1,25.5
2023/09/01 11:40:00,19.5,25.3
2023/09/01 11:50:00,19.0,25.6
2023/09/01 12:00:00,18.0,25.9
2023/09/01 12:10:00,14.0,26.9
2023/09/01 12:20:00,16.9,26.6
2023/09/01 12:30:00,14.3,26.7
2023/09/01 12:40:00,14.8,26.5
2023/09/01 12:50:00,19.9,26.4
2023/09/01 13:00:00,21.9,27.1
2023/09/01 13:10:00,16.7,26.5
2023/09/01 13:20:00,13.3,26.5
2023/09/01 13:30:00,18.6,26.6
2023/09/01 13:40:00,12.1,26.3
2023/09/01 13:50:00,10.2,26.6
2023/09/01 14:00:00, 9.7,26.1
2023/09/01 14:10:00,22.4,26.0
2023/09/01 14:20:00,22.2,25.7
2023/09/01 14:30:00,21.0,25.6
2023/09/01 14:40:00,26.5,25.4
2023/09/01 14:50:00,12.9,25.5
2023/09/01 15:00:00, 0.9,25.6
2023/09/01 15:10:00, 0.9,25.5
2023/09/01 15:20:00, 1.5,25.4
2023/09/01 15:30:00, 4.0,25.2
2023/09/01 15:40:00, 5.9,25.3
2023/09/01 15:50:00, 6.1,25.4
2023/09/01 16:00:00,19.0,25.4
2023/09/01 16:10:00,---,25.4
2023/09/01 16:20:00,20.2,25.0
2023/09/01 16:30:00,17.8,24.8
2023/09/01 16:40:00,20.7,25.0
2023/09/01 16:50:00, 1.5,24.9
2023/09/01 17:00:00, 0.8,24.8
2023/09/01 17:10:00, 0.6,24.4
2023/09/01 17:20:00, 8.2,24.4
2023/09/01 17:30:00,25.0,24.3
2023/09/01 17:40:00, 2.1,24.0
2023/09/01 17:50:00,19.9,23.7
2023/09/01 18:00:00, 1.5,23.6
2023/09/01 18:10:00, 0.4,23.5
2023/09/01 18:20:00, 1.1,23.3
2023/09/01 18:30:00, 3.9,23.2
2023/09/01 18:40:00,13.3,23.0
2023/09/01 18:50:00,12.9,22.7
2023/09/01 19:00:00, 8.8,22.8
2023/09/01 19:10:00,13.6,22.8
2023/09/01 19:20:00,---,22.6
2023/09/01 19:30:00,12.3,22.7
2023/09/01 19:40:00,11.1,22.5
2023/09/01 19:50:00, 8.3,22.5
2023/09/01 20:00:00,10.6,22.6
2023/09/01 20:10:00,13.1,22.6
2023/09/01 20:20:00,17.0,22.5
2023/09/01 20:30:00,19.8,22.2
2023/09/01 20:40:00,27.8,22.4
2023/09/01 20:50:00,24.2,22.5
2023/09/01 21:00:00,18.4,22.3
2023/09/01 21:10:00,24.9,22.6
2023/09/01 21:20:00,24.4,22.9
2023/09/01 21:30:00,24.9,22.3
2023/09/01 21:40:00,---,22.3
2023/09/01 21:50:00,21.6,22.3
2023/09/01 22:00:00,30.2,22.0
2023/09/01 22:10:00,29.9,21.7
2023/09/01 22:20:00,29.3,22.1
2023/09/01 22:30:00,25.8,21.8
2023/09/01 22:40:00,16.5,21.9
2023/09/01 22:50:00, 9.0,21.9
2023/09/01 23:00:00, 5.4,22.0
2023/09/01 23:10:00,10.3,22.1
2023/09/01 23:20:00, 5.5,22.0
2023/09/01 23:30:00, 9.2,22.2
2023/09/01 23:40:00,12.8,22.1
2023/09/01 23:50:00,16.9,22.1
